Zurück zum Katalog

SL-14 DEB

AktivPO
NORAD 25205·DEBRIS·🇷🇺 Russia

Gestartet Aug 18, 1987 von Plesetsk Cosmodrome

Loading…

Nächste Überflüge (nächste 24 Stunden)

TLE

AktuellSource: Space-Track

Epoche: Sep 14, 2026, 09:18 UTC

1 25205U 87068AG  26257.38803507  .00000346  00000-0  24757-3 0  9990
2 25205  82.5364 126.9051 0013053 252.8010 231.0332 13.94558328449254

Verfolge SL-14 DEB in Echtzeit mit AllMySat

Download on the App Store